Location: Unspecified
(35.7250°N, 0.0000°E)
Time: 10:21:52
(UTC+00:00)

Vanguard 1 Rocket - Pass Details

Date: 22 June 2019
Orbit: 650 x 4226 km, 34.3° (Epoch: 13 October)

Event Time Altitude Azimuth Distance (km) Brightness Sun altitude
Rises 19:58:49 0° 271° (W) 6,408 12.7 -7.5°
Reaches altitude 10° 20:03:52 10° 271° (W) 4,805 12.0 -8.4°
Maximum altitude 20:15:38 81° 187° (S) 1,317 8.1 -10.2°
Drops below altitude 10° 20:21:43 10° 100° (E) 2,598 9.2 -11.2°
Enters shadow 20:21:45 10° 100° (E) 2,606 9.2 -11.2°
Sets 20:23:42 0° 99° (E) 3,342 - -11.5°
